RADUGA 32 1 23448U 94087A 08129.32119439 -.00000092 00000-0 10000-3 0 99 2 23448 9.3141 56.8725 0004562 116.8302 243.0875 1.00260563 66624 RADUGA-1 4 1 25642U 99010A 08130.46595557 .00000140 00000-0 10000-3 0 1379 2 25642 7.8709 75.0604 0003433 152.4839 207.4028 1.00308436 33676 RADUGA-1 5 1 26477U 00049A 08129.95345366 .00000130 00000-0 10000-3 0 2564 2 26477 5.5041 72.1746 0006108 317.8893 224.8256 1.00268018 28177 RADUGA-1 7 1 28194U 04010A 08129.91968965 -.00000186 00000-0 10000-3 0 1534 2 28194 2.8104 94.2370 0001038 329.1717 219.7711 1.00264953 15080 RADUGA-1M 1 1 32373U 07058A 08128.90157597 -.00000041 00000-0 10000-3 0 1295 2 32373 0.0102 312.0496 0003492 135.4774 173.1212 1.00270621 2409